THOR ABLESTAR DEB, 120

Orbit data source: Space-Track

THOR ABLESTAR DEB, 120 is space debris in LEO originally from a launch on Thu, 29 Jun 1961 UTC launched from the Air Force Eastern Test Range (AFETR). Debris objects in space refer to the collection of defunct objects orbiting the Earth. Examples of debris include non-operational satellites, rocket bodies, and fragments generated from explosions, collisions, or faulty payload assembly.

Loading next visibility...
Identifier
120, 1961-015E
Orbit
LEO
Country
Flag of USUS
Related business
Manufacturer
Unknown
Mission
Spacecraft
Bus & Motor
Unknown
Mass
Unknown
Launch date (UTC)
1961-06-29 (65 years ago)
Launch vehicle
Unknown
Launch site
Air Force Eastern Test Range (AFETR)
Object type
Payload
Rocket body
Debris
Shape & HBR
Unknown shape, 0.2 m
Radar Cross Section
Medium (>0.1 m² and <1 m²)

Expand to show TLE details & history
Last TLE update: 9 hours ago

TLE from 9 hours ago
0 THOR ABLESTAR DEB
1   120U 61015E   26151.09220782  .00001013  00000-0  40242-3 0  9991
2   120  66.7039 116.2503 0108869  13.2880 347.1044 14.29567645345888
Epoch: 2026-05-31T02:12Z
TLE epoch observation values (Epoch: 2026-05-31T02:12:46.755Z)
Latitude
-0.00001°
Longitude
-165.54337°
Altitude
719.213 km
Speed
7.536 km/s
True Right ascension
07h 45m 00s
True Declination
0° 00' 00"
Sunlit
Object was in daylight at epoch
Visualization orbit readout
Latitude
Unknown
Longitude
Unknown
Altitude
Unknown
Speed
Unknown
Apparent Right ascension
Unknown
Apparent Declination
Unknown
Sunlit
N/A
Visualization observer readout
Local Sidereal Time
21:16:35
Azimuth
Unknown
Elevation
Unknown
Doppler factor
Unknown
Orbital elements
Apogee altitude
869.607 km
Perigee altitude
713.495 km
Semi-major axis
7,169.688 km
Eccentricity
0.01089
Inclination
66.7039°
RAAN
116.2503°
Arg. of periapsis
13.288°
True anomaly
346.82224°
Mean anomaly
347.1044°
Eccentric anomaly
346.9637°
Mean motion
3.57514 °/min
Orbital period
100.7 mins
BSTAR
0.00040242
Loading maneuver chart data...
Computing Atmospheric mass density...
Loading historical data...
Loading historical data...
Loading historical data...
Loading historical data...
Loading historical data...
Loading historical data...
Loading historical data...

Documentation

Showing up to 5 results
|